Regional Weather Roundup
Issued by NWS

Home | Current Version | Previous Version | Graphics & Text | Print | Product List | Glossary Off
Versions: 1 2 3 4 5 6 7 8 9 10 11 12 13 14 15 16 17 18 19 20 21 22 23 24 25 26 27 28 29 30 31 32 33 34 35 36 37 38 39 40 41 42 43 44 45 46 47 48 49 50

000
ASUS43 KDMX 140508
RWRIA

WEATHER ROUNDUP FOR IOWA
NATIONAL WEATHER SERVICE DES MOINES IA
1100 PM CST SAT FEB 13 2016

NOTE: "FAIR" INDICATES FEW OR NO CLOUDS BELOW 12,000 FEET WITH NO
SIGNIFICANT WEATHER AND/OR OBSTRUCTIONS TO VISIBILITY.

* - THESE STATIONS ARE NOT NWS STATIONS...THUS NOT UNDER NWS
QUALITY CONTROL.  THEY ALSO DO NOT REPORT WEATHER SUCH
AS PRECIPITATION OR FOG.

IAZ001>003-012>014-020>022-031>034-043>046-140600-
   NORTHWEST IOWA

CITY           SKY/WX    TMP DP  RH WIND       PRES   REMARKS
CARROLL *      CLOUDY    12  10  92 SE18G24   30.22F WCI  -5
CHEROKEE *     CLOUDY    12   9  85 SE13      30.18F WCI  -3
DENISON *      CLOUDY    16  10  79 SE13      30.17F WCI   2
LE MARS *      CLOUDY    16  10  79 SE13G18   30.14F WCI   2
ORANGE CITY *  LGT SNOW  12   9  85 SE16G22   30.11F WCI  -4
SHELDON *      CLOUDY    12   9  85 SE23G29   30.12F FOG     WCI  -7
SIOUX CITY     CLOUDY    18   8  65 SE14      30.13F WCI   4
SPENCER        LGT SNOW  11   6  81 SE21      30.18F WCI  -8
STORM LAKE *   CLOUDY    10  10 100 SE16G23   30.18S WCI  -7
$$

IAZ055>058-069>071-079>083-090>094-140600-
   SOUTHWEST IOWA

CITY           SKY/WX    TMP DP  RH WIND       PRES   REMARKS
ATLANTIC *     CLOUDY    18   5  57 SE13G18   30.20F WCI   4
AUDUBON *      CLOUDY    16  10  79 SE12G17   30.18F WCI   3
CLARINDA *     CLOUDY    19   1  45 SE14G21   30.23F WCI   6
COUNCIL BLFS * CLOUDY    18   5  57 SE20      30.16F WCI   1
CRESTON *      CLOUDY    16   7  67 SE16G23   30.23F WCI   0
HARLAN  *      CLOUDY    18   9  68 SE16      30.20F WCI   3
LAMONI         CLOUDY    17   6  62 E12       30.25F WCI   4
RED OAK *      CLOUDY    19   1  45 SE13G21   30.21F WCI   7
SHENANDOAH *   CLOUDY    19   1  45 SE15      30.21F WCI   5
$$

IAZ047>049-059>061-072>074-084-140600-
   CENTRAL IOWA

CITY           SKY/WX    TMP DP  RH WIND       PRES   REMARKS
AMES           LGT SNOW  13  10  88 SE12      30.30F VSB 1   WCI  -1
ANKENY *       MOCLDY    14  10  85 SE10G16   30.31F FOG     WCI   1
BOONE *        LGT SNOW  12   9  85 SE22      30.25F WCI  -7
CHARITON *     CLOUDY    16   9  73 SE10G16   30.31R WCI   3
DES MOINES     FLURRIES  15   9  76 SE14      30.30F WCI   0
GRINNELL*      LGT SNOW  14  12  92 SE12      30.33F VSB 3/4 WCI   0
KNOXVILLE *    LGT SNOW  14   9  79 SE10      30.31F WCI   1
MARSHALLTOWN   LGT SNOW  15   7  70 SE14      30.32F WCI   0
NEWTON *       LGT SNOW  14  12  92 SE12      30.32F WCI   0
PELLA *        LGT SNOW  14  12  92 SE12      30.35F WCI   0
$$

IAZ004>006-015-016-023>025-035-036-140600-
   NORTH CENTRAL IOWA

CITY           SKY/WX    TMP DP  RH WIND       PRES   REMARKS
ALGONA *       LGT SNOW  10   9  92 SE13      30.24F WCI  -5
CLARION *      LGT SNOW  12   7  79 SE18      30.26F WCI  -5
ESTHERVILLE    LGT SNOW  10   6  84 SE23      30.20F FOG     WCI -10
FORT DODGE *   CLOUDY    12   7  79 SE12G18   30.25F WCI  -2
MASON CITY     CLOUDY     8   0  69 SE13      30.30F WCI  -8
FOREST CITY *  FLURRIES  10   1  67 SE13      30.27F WCI  -5
WEBSTER CITY * LGT SNOW  14  10  85 SE21      30.24F WCI  -4
IOWA FALLS *   CLOUDY    14   7  73 SE13      30.30F WCI   0
$$

IAZ007>011-017>019-026>030-037>042-050>054-066-140600-
   NORTHEAST IOWA

CITY           SKY/WX    TMP DP  RH WIND       PRES   REMARKS
CEDAR RAPIDS   CLOUDY    16   1  51 SE8       30.37F WCI   5
CHARLES CITY * CLOUDY    10  -2  56 SE12      30.33F WCI  -4
CLINTON *      MOCLDY    14   2  58 SE9       30.42F WCI   2
DUBUQUE        CLOUDY    10  -1  61 SE6       30.38F WCI   0
MONTICELLO *   CLOUDY    14   1  57 SE6       30.39F WCI   5
OELWEIN *      CLOUDY    12   1  62 SE12      30.35F WCI  -2
WATERLOO       CLOUDY    13   2  61 SE9       30.35F WCI   1
$$

IAZ064-065-067-068-078-140600-
   EAST CENTRAL IOWA

CITY           SKY/WX    TMP DP  RH WIND       PRES   REMARKS
DAVENPORT      CLOUDY    17  -2  43 SE10      30.41F WCI   5
IOWA CITY      CLOUDY    17  -1  45 SE9       30.41F WCI   6
MT. PLEASANT * LGT SNOW  18  16  93 SE7       30.39F WCI   8
MUSCATINE *    CLOUDY    19   0  42 SE8       30.42F WCI   9
QUAD CITIES    CLOUDY    17   0  47 E10       30.42F WCI   5
$$

IAZ062-063-075>077-085>089-095>099-140600-
   SOUTHEAST IOWA

CITY           SKY/WX    TMP DP  RH WIND       PRES   REMARKS
BURLINGTON     LGT SNOW  16  13  88 SE7       30.40R VSB 3/4 WCI   6
FAIRFIELD *    LGT SNOW  16  12  86 SE12      30.36F WCI   3
FORT MADISON * LGT SNOW  16  12  86 SE7       30.40R WCI   6
KEOKUK *       LGT SNOW  18  14  86 SE8       30.39S WCI   7
OSKALOOSA *    LGT SNOW  14  12  92 SE12      30.35F WCI   0
CENTERVILLE *  CLOUDY    16   9  73 E9        30.33F WCI   4
OTTUMWA        LGT SNOW  15  12  88 SE10      30.35F FOG     WCI   2
WASHINGTON *   LGT SNOW  16   9  73 SE12      30.40S WCI   3
$$

ABBREVIATIONS USED IN REMARKS
   TC - TEMPERATURES IN CELSIUS
  WCI - WIND CHILL INDEX
   HX - HEAT INDEX
  VSB - VISIBILITY
$$




USA.gov is the U.S. government's official web portal to all federal, state and local government web resources and services.